Time,TemperatureF,DewpointF,PressureIn,WindDirection,WindDirectionDegrees,WindSpeedMPH,WindSpeedGustMPH,Humidity,HourlyPrecipIn,Conditions,Clouds,dailyrainin,SoftwareType,DateUTC
2013-08-11 00:01:00,61.8,51.5,29.97,North,-999,0.0,0.0,69,0.00,,,-99.99,WeatherLink 5.5,2013-08-11 04:01:00,
2013-08-11 00:05:00,61.5,51.6,29.98,North,-999,0.0,0.0,70,0.00,,,-99.99,WeatherLink 5.5,2013-08-11 04:05:00,
2013-08-11 00:15:00,61.5,51.6,29.98,North,-999,0.0,0.0,70,0.00,,,-99.99,WeatherLink 5.5,2013-08-11 04:15:00,
2013-08-11 00:20:00,61.5,51.6,29.98,North,-999,0.0,0.0,70,0.00,,,-99.99,WeatherLink 5.5,2013-08-11 04:20:00,
2013-08-11 00:30:00,61.5,51.6,29.98,North,-999,0.0,0.0,70,0.00,,,-99.99,WeatherLink 5.5,2013-08-11 04:30:00,
2013-08-11 00:35:00,61.5,51.6,29.98,North,-999,0.0,0.0,70,0.00,,,-99.99,WeatherLink 5.5,2013-08-11 04:35:00,
2013-08-11 00:40:00,61.5,51.2,29.98,North,-999,0.0,0.0,69,0.00,,,-99.99,WeatherLink 5.5,2013-08-11 04:40:00,
2013-08-11 00:45:00,61.5,51.2,29.98,North,-999,0.0,0.0,69,0.00,,,-99.99,WeatherLink 5.5,2013-08-11 04:45:00,
2013-08-11 00:50:00,61.2,50.9,29.98,North,-999,0.0,0.0,69,0.00,,,-99.99,WeatherLink 5.5,2013-08-11 04:50:00,
2013-08-11 00:55:00,61.0,51.5,29.98,North,-999,0.0,0.0,71,0.00,,,-99.99,WeatherLink 5.5,2013-08-11 04:55:00,
2013-08-11 01:00:00,61.0,51.5,29.98,North,-999,0.0,0.0,71,0.00,,,-99.99,WeatherLink 5.5,2013-08-11 05:00:00,
2013-08-11 01:05:00,60.6,51.5,29.98,North,-999,0.0,0.0,72,0.00,,,-99.99,WeatherLink 5.5,2013-08-11 05:05:00,
2013-08-11 01:10:00,60.4,51.3,29.98,North,-999,0.0,0.0,72,0.00,,,-99.99,WeatherLink 5.5,2013-08-11 05:10:00,
2013-08-11 01:15:00,60.4,51.3,29.98,North,-999,0.0,0.0,72,0.00,,,-99.99,WeatherLink 5.5,2013-08-11 05:15:00,
2013-08-11 01:20:00,59.8,51.5,29.98,North,-999,0.0,0.0,74,0.00,,,-99.99,WeatherLink 5.5,2013-08-11 05:20:00,
2013-08-11 01:25:00,59.6,51.3,29.98,North,-999,0.0,0.0,74,0.00,,,-99.99,WeatherLink 5.5,2013-08-11 05:25:00,
2013-08-11 01:30:00,59.6,51.3,29.98,North,-999,0.0,0.0,74,0.00,,,-99.99,WeatherLink 5.5,2013-08-11 05:30:00,
2013-08-11 01:35:00,59.3,51.0,29.99,North,-999,0.0,0.0,74,0.00,,,-99.99,WeatherLink 5.5,2013-08-11 05:35:00,
2013-08-11 01:40:00,59.2,51.3,29.99,North,-999,0.0,0.0,75,0.00,,,-99.99,WeatherLink 5.5,2013-08-11 05:40:00,
2013-08-11 01:45:00,58.7,51.2,29.99,North,-999,0.0,0.0,76,0.00,,,-99.99,WeatherLink 5.5,2013-08-11 05:45:00,
2013-08-11 01:50:00,58.4,51.2,29.99,North,-999,0.0,0.0,77,0.00,,,-99.99,WeatherLink 5.5,2013-08-11 05:50:00,
2013-08-11 01:55:00,58.1,51.3,29.99,North,-999,0.0,0.0,78,0.00,,,-99.99,WeatherLink 5.5,2013-08-11 05:55:00,
2013-08-11 02:00:00,58.0,51.2,29.99,North,-999,0.0,0.0,78,0.00,,,-99.99,WeatherLink 5.5,2013-08-11 06:00:00,
2013-08-11 02:01:00,58.1,51.3,29.99,North,-999,0.0,0.0,78,0.00,,,-99.99,WeatherLink 5.5,2013-08-11 06:01:00,
2013-08-11 02:05:00,57.8,51.3,29.99,North,-999,0.0,0.0,79,0.00,,,-99.99,WeatherLink 5.5,2013-08-11 06:05:00,
2013-08-11 02:10:00,57.5,51.0,29.99,North,-999,0.0,0.0,79,0.00,,,-99.99,WeatherLink 5.5,2013-08-11 06:10:00,
2013-08-11 02:15:00,57.3,51.2,29.99,North,-999,0.0,0.0,80,0.00,,,-99.99,WeatherLink 5.5,2013-08-11 06:15:00,
2013-08-11 02:20:00,57.0,51.2,29.99,North,-999,0.0,0.0,81,0.00,,,-99.99,WeatherLink 5.5,2013-08-11 06:20:00,
2013-08-11 02:25:00,56.9,51.1,29.99,North,-999,0.0,0.0,81,0.00,,,-99.99,WeatherLink 5.5,2013-08-11 06:25:00,
2013-08-11 02:30:00,56.9,51.1,29.99,North,-999,0.0,0.0,81,0.00,,,-99.99,WeatherLink 5.5,2013-08-11 06:30:00,
2013-08-11 02:35:00,56.6,51.2,29.99,North,-999,0.0,0.0,82,0.00,,,-99.99,WeatherLink 5.5,2013-08-11 06:35:00,
2013-08-11 02:40:00,56.6,51.2,29.99,North,-999,0.0,0.0,82,0.00,,,-99.99,WeatherLink 5.5,2013-08-11 06:40:00,
2013-08-11 02:45:00,56.6,51.2,29.99,North,-999,0.0,0.0,82,0.00,,,-99.99,WeatherLink 5.5,2013-08-11 06:45:00,
2013-08-11 02:50:00,56.3,50.9,29.99,North,-999,0.0,0.0,82,0.00,,,-99.99,WeatherLink 5.5,2013-08-11 06:50:00,
2013-08-11 02:55:00,56.2,50.8,29.99,North,-999,0.0,0.0,82,0.00,,,-99.99,WeatherLink 5.5,2013-08-11 06:55:00,
2013-08-11 03:00:00,56.2,51.1,29.99,North,-999,0.0,0.0,83,0.00,,,-99.99,WeatherLink 5.5,2013-08-11 07:00:00,
2013-08-11 03:05:00,56.0,50.9,29.99,North,-999,0.0,0.0,83,0.00,,,-99.99,WeatherLink 5.5,2013-08-11 07:05:00,
2013-08-11 03:10:00,55.9,50.8,29.99,North,-999,0.0,0.0,83,0.00,,,-99.99,WeatherLink 5.5,2013-08-11 07:10:00,
2013-08-11 03:15:00,55.7,50.6,29.99,North,-999,0.0,0.0,83,0.00,,,-99.99,WeatherLink 5.5,2013-08-11 07:15:00,
2013-08-11 03:16:00,55.9,50.8,29.99,North,-999,0.0,0.0,83,0.00,,,-99.99,WeatherLink 5.5,2013-08-11 07:16:00,
2013-08-11 03:20:00,55.6,50.5,29.99,North,-999,0.0,0.0,83,0.00,,,-99.99,WeatherLink 5.5,2013-08-11 07:20:00,
2013-08-11 03:25:00,55.6,50.8,29.99,North,-999,0.0,0.0,84,0.00,,,-99.99,WeatherLink 5.5,2013-08-11 07:25:00,
2013-08-11 03:30:00,55.4,50.6,30.00,North,-999,0.0,0.0,84,0.00,,,-99.99,WeatherLink 5.5,2013-08-11 07:30:00,
2013-08-11 03:31:00,55.6,50.8,29.99,North,-999,0.0,0.0,84,0.00,,,-99.99,WeatherLink 5.5,2013-08-11 07:31:00,
2013-08-11 03:35:00,55.3,50.5,30.00,North,-999,0.0,0.0,84,0.00,,,-99.99,WeatherLink 5.5,2013-08-11 07:35:00,
2013-08-11 03:40:00,55.1,50.4,30.00,North,-999,0.0,0.0,84,0.00,,,-99.99,WeatherLink 5.5,2013-08-11 07:40:00,
2013-08-11 03:45:00,55.1,50.4,30.00,North,-999,0.0,0.0,84,0.00,,,-99.99,WeatherLink 5.5,2013-08-11 07:45:00,
2013-08-11 03:50:00,54.8,50.4,30.00,North,-999,0.0,0.0,85,0.00,,,-99.99,WeatherLink 5.5,2013-08-11 07:50:00,
2013-08-11 03:55:00,54.7,50.3,30.00,North,-999,0.0,0.0,85,0.00,,,-99.99,WeatherLink 5.5,2013-08-11 07:55:00,
2013-08-11 04:00:00,54.7,50.3,30.00,North,-999,0.0,0.0,85,0.00,,,-99.99,WeatherLink 5.5,2013-08-11 08:00:00,
2013-08-11 04:05:00,54.4,50.0,30.00,North,-999,0.0,0.0,85,0.00,,,-99.99,WeatherLink 5.5,2013-08-11 08:05:00,
2013-08-11 04:10:00,54.4,50.0,30.00,North,-999,0.0,0.0,85,0.00,,,-99.99,WeatherLink 5.5,2013-08-11 08:10:00,
2013-08-11 04:15:00,54.4,50.0,30.00,North,-999,0.0,0.0,85,0.00,,,-99.99,WeatherLink 5.5,2013-08-11 08:15:00,
2013-08-11 04:20:00,54.2,49.8,30.00,North,-999,0.0,0.0,85,0.00,,,-99.99,WeatherLink 5.5,2013-08-11 08:20:00,
2013-08-11 04:25:00,54.1,49.7,30.00,North,-999,0.0,0.0,85,0.00,,,-99.99,WeatherLink 5.5,2013-08-11 08:25:00,
2013-08-11 04:30:00,54.1,49.7,30.00,North,-999,0.0,0.0,85,0.00,,,-99.99,WeatherLink 5.5,2013-08-11 08:30:00,
2013-08-11 04:35:00,54.1,50.0,30.01,North,-999,0.0,0.0,86,0.00,,,-99.99,WeatherLink 5.5,2013-08-11 08:35:00,
2013-08-11 04:40:00,53.9,49.8,30.01,North,-999,0.0,0.0,86,0.00,,,-99.99,WeatherLink 5.5,2013-08-11 08:40:00,
2013-08-11 04:45:00,53.9,49.8,30.01,North,-999,0.0,0.0,86,0.00,,,-99.99,WeatherLink 5.5,2013-08-11 08:45:00,
2013-08-11 04:50:00,53.8,49.7,30.01,North,-999,0.0,0.0,86,0.00,,,-99.99,WeatherLink 5.5,2013-08-11 08:50:00,
2013-08-11 04:55:00,53.8,49.7,30.01,North,-999,0.0,0.0,86,0.00,,,-99.99,WeatherLink 5.5,2013-08-11 08:55:00,
2013-08-11 05:00:00,53.8,49.7,30.01,North,-999,0.0,0.0,86,0.00,,,-99.99,WeatherLink 5.5,2013-08-11 09:00:00,
2013-08-11 05:05:00,53.6,49.5,30.01,North,-999,0.0,0.0,86,0.00,,,-99.99,WeatherLink 5.5,2013-08-11 09:05:00,
2013-08-11 05:10:00,53.6,49.5,30.01,North,-999,0.0,0.0,86,0.00,,,-99.99,WeatherLink 5.5,2013-08-11 09:10:00,
2013-08-11 05:15:00,53.6,49.5,30.01,North,-999,0.0,0.0,86,0.00,,,-99.99,WeatherLink 5.5,2013-08-11 09:15:00,
2013-08-11 05:20:00,53.5,49.7,30.01,North,-999,0.0,0.0,87,0.00,,,-99.99,WeatherLink 5.5,2013-08-11 09:20:00,
2013-08-11 05:25:00,53.5,49.7,30.01,North,-999,0.0,0.0,87,0.00,,,-99.99,WeatherLink 5.5,2013-08-11 09:25:00,
2013-08-11 05:30:00,53.3,49.5,30.01,North,-999,0.0,0.0,87,0.00,,,-99.99,WeatherLink 5.5,2013-08-11 09:30:00,
2013-08-11 05:35:00,53.3,49.5,30.01,North,-999,0.0,0.0,87,0.00,,,-99.99,WeatherLink 5.5,2013-08-11 09:35:00,
2013-08-11 05:40:00,53.2,49.4,30.01,North,-999,0.0,0.0,87,0.00,,,-99.99,WeatherLink 5.5,2013-08-11 09:40:00,
2013-08-11 05:45:00,53.2,49.4,30.02,North,-999,0.0,0.0,87,0.00,,,-99.99,WeatherLink 5.5,2013-08-11 09:45:00,
2013-08-11 05:50:00,53.2,49.4,30.02,North,-999,0.0,0.0,87,0.00,,,-99.99,WeatherLink 5.5,2013-08-11 09:50:00,
2013-08-11 05:55:00,53.0,49.2,30.02,North,-999,0.0,0.0,87,0.00,,,-99.99,WeatherLink 5.5,2013-08-11 09:55:00,
2013-08-11 06:00:00,53.0,49.2,30.02,North,-999,0.0,0.0,87,0.00,,,-99.99,WeatherLink 5.5,2013-08-11 10:00:00,
2013-08-11 06:05:00,53.0,49.2,30.02,North,-999,0.0,0.0,87,0.00,,,-99.99,WeatherLink 5.5,2013-08-11 10:05:00,
2013-08-11 06:10:00,52.9,49.1,30.02,North,-999,0.0,0.0,87,0.00,,,-99.99,WeatherLink 5.5,2013-08-11 10:10:00,
2013-08-11 06:15:00,52.9,49.1,30.02,North,-999,0.0,0.0,87,0.00,,,-99.99,WeatherLink 5.5,2013-08-11 10:15:00,
2013-08-11 06:20:00,52.9,49.1,30.02,North,-999,0.0,0.0,87,0.00,,,-99.99,WeatherLink 5.5,2013-08-11 10:20:00,
2013-08-11 06:25:00,52.9,49.1,30.02,North,-999,0.0,0.0,87,0.00,,,-99.99,WeatherLink 5.5,2013-08-11 10:25:00,
2013-08-11 06:30:00,52.9,49.1,30.02,North,-999,0.0,0.0,87,0.00,,,-99.99,WeatherLink 5.5,2013-08-11 10:30:00,
2013-08-11 06:35:00,53.0,49.5,30.03,North,-999,0.0,0.0,88,0.00,,,-99.99,WeatherLink 5.5,2013-08-11 10:35:00,
2013-08-11 06:40:00,53.2,49.7,30.03,North,-999,0.0,0.0,88,0.00,,,-99.99,WeatherLink 5.5,2013-08-11 10:40:00,
2013-08-11 06:45:00,53.2,49.7,30.03,North,-999,0.0,0.0,88,0.00,,,-99.99,WeatherLink 5.5,2013-08-11 10:45:00,
2013-08-11 06:50:00,53.5,50.0,30.03,North,-999,0.0,0.0,88,0.00,,,-99.99,WeatherLink 5.5,2013-08-11 10:50:00,
2013-08-11 06:55:00,53.6,50.4,30.03,North,-999,0.0,0.0,89,0.00,,,-99.99,WeatherLink 5.5,2013-08-11 10:55:00,
2013-08-11 07:00:00,53.8,50.6,30.04,North,-999,0.0,0.0,89,0.00,,,-99.99,WeatherLink 5.5,2013-08-11 11:00:00,
2013-08-11 07:01:00,53.6,50.4,30.03,North,-999,0.0,0.0,89,0.00,,,-99.99,WeatherLink 5.5,2013-08-11 11:01:00,
2013-08-11 07:05:00,54.1,50.9,30.04,North,-999,0.0,0.0,89,0.00,,,-99.99,WeatherLink 5.5,2013-08-11 11:05:00,
2013-08-11 07:10:00,54.4,51.2,30.04,North,-999,0.0,0.0,89,0.00,,,-99.99,WeatherLink 5.5,2013-08-11 11:10:00,
2013-08-11 07:15:00,54.4,51.2,30.04,North,-999,0.0,0.0,89,0.00,,,-99.99,WeatherLink 5.5,2013-08-11 11:15:00,
2013-08-11 07:20:00,55.3,52.4,30.04,North,-999,0.0,0.0,90,0.00,,,-99.99,WeatherLink 5.5,2013-08-11 11:20:00,
2013-08-11 07:25:00,55.7,52.5,30.04,North,-999,0.0,0.0,89,0.00,,,-99.99,WeatherLink 5.5,2013-08-11 11:25:00,
2013-08-11 07:30:00,56.2,53.0,30.04,NW,315,0.0,1.0,89,0.00,,,-99.99,WeatherLink 5.5,2013-08-11 11:30:00,
2013-08-11 07:35:00,56.7,53.5,30.04,North,-999,0.0,0.0,89,0.00,,,-99.99,WeatherLink 5.5,2013-08-11 11:35:00,
2013-08-11 07:40:00,57.3,53.8,30.04,North,-999,0.0,0.0,88,0.00,,,-99.99,WeatherLink 5.5,2013-08-11 11:40:00,
2013-08-11 07:45:00,57.3,53.8,30.04,North,-999,0.0,0.0,88,0.00,,,-99.99,WeatherLink 5.5,2013-08-11 11:45:00,
2013-08-11 07:50:00,58.1,53.0,30.04,NW,315,0.0,2.0,83,0.00,,,-99.99,WeatherLink 5.5,2013-08-11 11:50:00,
2013-08-11 07:55:00,58.9,53.1,30.04,NW,315,0.0,1.0,81,0.00,,,-99.99,WeatherLink 5.5,2013-08-11 11:55:00,
2013-08-11 08:00:00,58.9,53.1,30.04,NW,315,0.0,1.0,81,0.00,,,-99.99,WeatherLink 5.5,2013-08-11 12:00:00,
2013-08-11 08:05:00,60.9,53.6,30.04,NW,315,0.0,1.0,77,0.00,,,-99.99,WeatherLink 5.5,2013-08-11 12:05:00,
2013-08-11 08:10:00,61.8,53.8,30.04,South,180,0.0,2.0,75,0.00,,,-99.99,WeatherLink 5.5,2013-08-11 12:10:00,
2013-08-11 08:15:00,62.4,53.6,30.04,South,180,0.0,1.0,73,0.00,,,-99.99,WeatherLink 5.5,2013-08-11 12:15:00,
2013-08-11 08:20:00,62.9,53.4,30.04,West,270,0.0,2.0,71,0.00,,,-99.99,WeatherLink 5.5,2013-08-11 12:20:00,
2013-08-11 08:25:00,63.4,53.4,30.04,North,-999,0.0,0.0,70,0.00,,,-99.99,WeatherLink 5.5,2013-08-11 12:25:00,
2013-08-11 08:30:00,63.9,53.9,30.04,West,270,1.0,6.0,70,0.00,,,-99.99,WeatherLink 5.5,2013-08-11 12:30:00,
2013-08-11 08:35:00,64.4,53.6,30.04,West,270,0.0,6.0,68,0.00,,,-99.99,WeatherLink 5.5,2013-08-11 12:35:00,
2013-08-11 08:40:00,64.9,53.7,30.04,North,-999,0.0,0.0,67,0.00,,,-99.99,WeatherLink 5.5,2013-08-11 12:40:00,
2013-08-11 08:45:00,64.9,53.7,30.04,North,-999,0.0,0.0,67,0.00,,,-99.99,WeatherLink 5.5,2013-08-11 12:45:00,
2013-08-11 08:50:00,65.3,52.8,30.04,West,270,0.0,1.0,64,0.00,,,-99.99,WeatherLink 5.5,2013-08-11 12:50:00,
2013-08-11 08:55:00,65.8,54.5,30.04,North,-999,0.0,0.0,67,0.00,,,-99.99,WeatherLink 5.5,2013-08-11 12:55:00,
2013-08-11 09:00:00,66.6,54.5,30.03,West,270,0.0,2.0,65,0.00,,,-99.99,WeatherLink 5.5,2013-08-11 13:00:00,
2013-08-11 09:01:00,65.8,54.5,30.04,North,-999,0.0,0.0,67,0.00,,,-99.99,WeatherLink 5.5,2013-08-11 13:01:00,
2013-08-11 09:05:00,67.1,54.1,30.03,West,270,0.0,4.0,63,0.00,,,-99.99,WeatherLink 5.5,2013-08-11 13:05:00,
2013-08-11 09:10:00,67.6,54.1,30.03,North,-999,0.0,0.0,62,0.00,,,-99.99,WeatherLink 5.5,2013-08-11 13:10:00,
2013-08-11 09:15:00,67.6,54.1,30.03,North,-999,0.0,0.0,62,0.00,,,-99.99,WeatherLink 5.5,2013-08-11 13:15:00,
2013-08-11 09:20:00,69.1,52.7,30.03,West,270,1.0,4.0,56,0.00,,,-99.99,WeatherLink 5.5,2013-08-11 13:20:00,
2013-08-11 09:25:00,69.6,53.2,30.03,West,270,0.0,1.0,56,0.00,,,-99.99,WeatherLink 5.5,2013-08-11 13:25:00,
2013-08-11 09:30:00,70.6,53.1,30.03,West,270,0.0,2.0,54,0.00,,,-99.99,WeatherLink 5.5,2013-08-11 13:30:00,
2013-08-11 09:35:00,71.0,50.3,30.03,SW,225,0.0,2.0,48,0.00,,,-99.99,WeatherLink 5.5,2013-08-11 13:35:00,
2013-08-11 09:40:00,71.0,50.9,30.03,WSW,247,1.0,2.0,49,0.00,,,-99.99,WeatherLink 5.5,2013-08-11 13:40:00,
2013-08-11 09:45:00,71.7,52.6,30.04,West,270,0.0,2.0,51,0.00,,,-99.99,WeatherLink 5.5,2013-08-11 13:45:00,
2013-08-11 09:50:00,72.7,52.4,30.04,West,270,0.0,1.0,49,0.00,,,-99.99,WeatherLink 5.5,2013-08-11 13:50:00,
2013-08-11 09:55:00,72.7,51.3,30.04,West,270,1.0,4.0,47,0.00,,,-99.99,WeatherLink 5.5,2013-08-11 13:55:00,
2013-08-11 10:00:00,72.7,51.3,30.04,West,270,1.0,4.0,47,0.00,,,-99.99,WeatherLink 5.5,2013-08-11 14:00:00,
2013-08-11 10:05:00,72.9,50.3,30.04,NW,315,0.0,7.0,45,0.00,,,-99.99,WeatherLink 5.5,2013-08-11 14:05:00,
2013-08-11 10:10:00,73.2,50.0,30.04,West,270,1.0,4.0,44,0.00,,,-99.99,WeatherLink 5.5,2013-08-11 14:10:00,
2013-08-11 10:15:00,73.4,50.8,30.04,West,270,1.0,8.0,45,0.00,,,-99.99,WeatherLink 5.5,2013-08-11 14:15:00,
2013-08-11 10:16:00,73.2,50.0,30.04,West,270,1.0,4.0,44,0.00,,,-99.99,WeatherLink 5.5,2013-08-11 14:16:00,
2013-08-11 10:20:00,73.7,49.8,30.04,NW,315,2.0,7.0,43,0.00,,,-99.99,WeatherLink 5.5,2013-08-11 14:20:00,
2013-08-11 10:25:00,73.6,50.9,30.04,West,270,1.0,4.0,45,0.00,,,-99.99,WeatherLink 5.5,2013-08-11 14:25:00,
2013-08-11 10:30:00,73.6,50.9,30.04,West,270,1.0,4.0,45,0.00,,,-99.99,WeatherLink 5.5,2013-08-11 14:30:00,
2013-08-11 10:35:00,73.0,47.9,30.03,NW,315,1.0,9.0,41,0.00,,,-99.99,WeatherLink 5.5,2013-08-11 14:35:00,
2013-08-11 10:40:00,73.0,47.2,30.03,NW,315,3.0,9.0,40,0.00,,,-99.99,WeatherLink 5.5,2013-08-11 14:40:00,
2013-08-11 10:45:00,73.0,47.2,30.03,NW,315,3.0,9.0,40,0.00,,,-99.99,WeatherLink 5.5,2013-08-11 14:45:00,
2013-08-11 10:50:00,73.4,47.6,30.03,NW,315,1.0,10.0,40,0.00,,,-99.99,WeatherLink 5.5,2013-08-11 14:50:00,
2013-08-11 10:55:00,74.1,49.5,30.03,WSW,247,2.0,7.0,42,0.00,,,-99.99,WeatherLink 5.5,2013-08-11 14:55:00,
2013-08-11 11:00:00,74.1,49.5,30.03,WSW,247,2.0,7.0,42,0.00,,,-99.99,WeatherLink 5.5,2013-08-11 15:00:00,
2013-08-11 11:05:00,74.8,48.2,30.03,WSW,247,1.0,7.0,39,0.00,,,-99.99,WeatherLink 5.5,2013-08-11 15:05:00,
2013-08-11 11:10:00,75.0,48.4,30.03,NW,315,1.0,8.0,39,0.00,,,-99.99,WeatherLink 5.5,2013-08-11 15:10:00,
2013-08-11 11:15:00,75.0,48.4,30.03,NW,315,1.0,8.0,39,0.00,,,-99.99,WeatherLink 5.5,2013-08-11 15:15:00,
2013-08-11 11:20:00,74.8,48.2,30.02,NW,315,1.0,7.0,39,0.00,,,-99.99,WeatherLink 5.5,2013-08-11 15:20:00,
2013-08-11 11:25:00,74.8,49.5,30.02,NW,315,1.0,6.0,41,0.00,,,-99.99,WeatherLink 5.5,2013-08-11 15:25:00,
2013-08-11 11:30:00,74.8,49.5,30.02,NW,315,1.0,6.0,41,0.00,,,-99.99,WeatherLink 5.5,2013-08-11 15:30:00,
2013-08-11 11:35:00,75.7,49.0,30.02,SW,225,0.0,4.0,39,0.00,,,-99.99,WeatherLink 5.5,2013-08-11 15:35:00,
2013-08-11 11:40:00,76.2,50.8,30.02,West,270,1.0,6.0,41,0.00,,,-99.99,WeatherLink 5.5,2013-08-11 15:40:00,
2013-08-11 11:45:00,76.2,50.8,30.02,West,270,1.0,6.0,41,0.00,,,-99.99,WeatherLink 5.5,2013-08-11 15:45:00,
2013-08-11 11:50:00,76.0,47.1,30.02,NW,315,2.0,7.0,36,0.00,,,-99.99,WeatherLink 5.5,2013-08-11 15:50:00,
2013-08-11 11:55:00,76.0,48.6,30.02,NW,315,1.0,7.0,38,0.00,,,-99.99,WeatherLink 5.5,2013-08-11 15:55:00,
2013-08-11 12:00:00,76.0,48.6,30.02,NW,315,1.0,7.0,38,0.00,,,-99.99,WeatherLink 5.5,2013-08-11 16:00:00,
2013-08-11 12:05:00,75.1,49.8,30.02,WNW,292,0.0,6.0,41,0.00,,,-99.99,WeatherLink 5.5,2013-08-11 16:05:00,
2013-08-11 12:10:00,75.1,47.0,30.02,NW,315,2.0,8.0,37,0.00,,,-99.99,WeatherLink 5.5,2013-08-11 16:10:00,
2013-08-11 12:15:00,75.5,49.5,30.02,NW,315,0.0,4.0,40,0.00,,,-99.99,WeatherLink 5.5,2013-08-11 16:15:00,
2013-08-11 12:20:00,75.8,47.7,30.02,West,270,2.0,7.0,37,0.00,,,-99.99,WeatherLink 5.5,2013-08-11 16:20:00,
2013-08-11 12:25:00,76.4,49.6,30.02,WNW,292,1.0,6.0,39,0.00,,,-99.99,WeatherLink 5.5,2013-08-11 16:25:00,
2013-08-11 12:30:00,76.4,49.6,30.02,WNW,292,1.0,6.0,39,0.00,,,-99.99,WeatherLink 5.5,2013-08-11 16:30:00,
2013-08-11 12:35:00,77.1,48.8,30.01,WNW,292,1.0,8.0,37,0.00,,,-99.99,WeatherLink 5.5,2013-08-11 16:35:00,
2013-08-11 12:40:00,77.4,50.5,30.01,WSW,247,0.0,4.0,39,0.00,,,-99.99,WeatherLink 5.5,2013-08-11 16:40:00,
2013-08-11 12:45:00,77.4,48.3,30.00,NW,315,1.0,6.0,36,0.00,,,-99.99,WeatherLink 5.5,2013-08-11 16:45:00,
2013-08-11 12:46:00,77.4,50.5,30.01,WSW,247,0.0,4.0,39,0.00,,,-99.99,WeatherLink 5.5,2013-08-11 16:46:00,
2013-08-11 12:50:00,78.0,51.7,30.00,NW,315,0.0,2.0,40,0.00,,,-99.99,WeatherLink 5.5,2013-08-11 16:50:00,
2013-08-11 12:55:00,77.8,46.4,30.00,SW,225,2.0,7.0,33,0.00,,,-99.99,WeatherLink 5.5,2013-08-11 16:55:00,
2013-08-11 13:00:00,77.8,46.4,30.00,SW,225,2.0,7.0,33,0.00,,,-99.99,WeatherLink 5.5,2013-08-11 17:00:00,
2013-08-11 13:05:00,77.6,48.5,30.00,NW,315,1.0,2.0,36,0.00,,,-99.99,WeatherLink 5.5,2013-08-11 17:05:00,
2013-08-11 13:10:00,77.8,47.2,30.00,NW,315,1.0,6.0,34,0.00,,,-99.99,WeatherLink 5.5,2013-08-11 17:10:00,
2013-08-11 13:15:00,77.8,47.2,30.00,NW,315,1.0,6.0,34,0.00,,,-99.99,WeatherLink 5.5,2013-08-11 17:15:00,
2013-08-11 13:20:00,78.3,51.3,30.00,NW,315,0.0,6.0,39,0.00,,,-99.99,WeatherLink 5.5,2013-08-11 17:20:00,
2013-08-11 13:25:00,78.5,48.6,30.00,NW,315,1.0,4.0,35,0.00,,,-99.99,WeatherLink 5.5,2013-08-11 17:25:00,
2013-08-11 13:30:00,78.5,48.6,30.00,NW,315,1.0,4.0,35,0.00,,,-99.99,WeatherLink 5.5,2013-08-11 17:30:00,
2013-08-11 13:35:00,78.3,46.0,29.99,West,270,1.0,7.0,32,0.00,,,-99.99,WeatherLink 5.5,2013-08-11 17:35:00,
2013-08-11 13:40:00,78.2,47.5,29.99,WNW,292,2.0,9.0,34,0.00,,,-99.99,WeatherLink 5.5,2013-08-11 17:40:00,
2013-08-11 13:45:00,78.2,47.5,29.99,WNW,292,2.0,9.0,34,0.00,,,-99.99,WeatherLink 5.5,2013-08-11 17:45:00,
2013-08-11 13:50:00,78.5,47.0,29.99,West,270,2.0,7.0,33,0.00,,,-99.99,WeatherLink 5.5,2013-08-11 17:50:00,
2013-08-11 13:55:00,78.7,46.4,29.99,WSW,247,1.0,4.0,32,0.00,,,-99.99,WeatherLink 5.5,2013-08-11 17:55:00,
2013-08-11 14:00:00,78.7,46.4,29.99,WSW,247,1.0,4.0,32,0.00,,,-99.99,WeatherLink 5.5,2013-08-11 18:00:00,
2013-08-11 14:05:00,79.3,46.9,29.99,WSW,247,1.0,6.0,32,0.00,,,-99.99,WeatherLink 5.5,2013-08-11 18:05:00,
2013-08-11 14:10:00,78.9,46.5,29.99,WNW,292,2.0,7.0,32,0.00,,,-99.99,WeatherLink 5.5,2013-08-11 18:10:00,
2013-08-11 14:15:00,78.9,46.5,29.99,WNW,292,2.0,7.0,32,0.00,,,-99.99,WeatherLink 5.5,2013-08-11 18:15:00,
2013-08-11 14:20:00,78.9,46.5,29.99,West,270,1.0,4.0,32,0.00,,,-99.99,WeatherLink 5.5,2013-08-11 18:20:00,
2013-08-11 14:25:00,78.9,47.3,29.99,South,180,1.0,6.0,33,0.00,,,-99.99,WeatherLink 5.5,2013-08-11 18:25:00,
2013-08-11 14:30:00,78.9,47.3,29.99,South,180,1.0,6.0,33,0.00,,,-99.99,WeatherLink 5.5,2013-08-11 18:30:00,
2013-08-11 14:35:00,79.1,48.3,29.99,West,270,0.0,4.0,34,0.00,,,-99.99,WeatherLink 5.5,2013-08-11 18:35:00,
2013-08-11 14:40:00,79.3,46.0,29.99,NW,315,1.0,4.0,31,0.00,,,-99.99,WeatherLink 5.5,2013-08-11 18:40:00,
2013-08-11 14:45:00,79.3,46.0,29.99,NW,315,1.0,4.0,31,0.00,,,-99.99,WeatherLink 5.5,2013-08-11 18:45:00,
2013-08-11 14:50:00,79.6,46.3,29.98,West,270,1.0,6.0,31,0.00,,,-99.99,WeatherLink 5.5,2013-08-11 18:50:00,
2013-08-11 14:55:00,79.1,48.3,29.98,NW,315,1.0,6.0,34,0.00,,,-99.99,WeatherLink 5.5,2013-08-11 18:55:00,
2013-08-11 15:00:00,79.1,48.3,29.98,NW,315,1.0,6.0,34,0.00,,,-99.99,WeatherLink 5.5,2013-08-11 19:00:00,
2013-08-11 15:05:00,77.8,47.2,29.98,WSW,247,0.0,4.0,34,0.00,,,-99.99,WeatherLink 5.5,2013-08-11 19:05:00,
2013-08-11 15:10:00,77.6,49.3,29.98,North,-999,0.0,0.0,37,0.00,,,-99.99,WeatherLink 5.5,2013-08-11 19:10:00,
2013-08-11 15:15:00,77.6,49.3,29.98,North,-999,0.0,0.0,37,0.00,,,-99.99,WeatherLink 5.5,2013-08-11 19:15:00,
2013-08-11 15:20:00,77.8,47.9,29.98,SW,225,0.0,2.0,35,0.00,,,-99.99,WeatherLink 5.5,2013-08-11 19:20:00,
2013-08-11 15:25:00,78.2,47.5,29.98,WSW,247,1.0,7.0,34,0.00,,,-99.99,WeatherLink 5.5,2013-08-11 19:25:00,
2013-08-11 15:30:00,78.2,47.5,29.98,WSW,247,1.0,7.0,34,0.00,,,-99.99,WeatherLink 5.5,2013-08-11 19:30:00,
2013-08-11 15:35:00,78.9,46.5,29.98,WSW,247,2.0,9.0,32,0.00,,,-99.99,WeatherLink 5.5,2013-08-11 19:35:00,
2013-08-11 15:40:00,78.9,45.7,29.98,NNW,337,1.0,7.0,31,0.00,,,-99.99,WeatherLink 5.5,2013-08-11 19:40:00,
2013-08-11 15:45:00,78.7,45.5,29.97,NW,315,2.0,7.0,31,0.00,,,-99.99,WeatherLink 5.5,2013-08-11 19:45:00,
2013-08-11 15:46:00,78.9,45.7,29.98,NNW,337,1.0,7.0,31,0.00,,,-99.99,WeatherLink 5.5,2013-08-11 19:46:00,
2013-08-11 15:50:00,78.5,43.6,29.97,West,270,1.0,6.0,29,0.00,,,-99.99,WeatherLink 5.5,2013-08-11 19:50:00,
2013-08-11 15:55:00,78.5,47.0,29.97,West,270,1.0,4.0,33,0.00,,,-99.99,WeatherLink 5.5,2013-08-11 19:55:00,
2013-08-11 16:00:00,78.5,47.0,29.97,West,270,1.0,4.0,33,0.00,,,-99.99,WeatherLink 5.5,2013-08-11 20:00:00,
2013-08-11 16:05:00,78.5,46.2,29.97,South,180,0.0,6.0,32,0.00,,,-99.99,WeatherLink 5.5,2013-08-11 20:05:00,
2013-08-11 16:10:00,78.9,48.9,29.97,West,270,0.0,2.0,35,0.00,,,-99.99,WeatherLink 5.5,2013-08-11 20:10:00,
2013-08-11 16:15:00,78.9,48.9,29.97,West,270,0.0,2.0,35,0.00,,,-99.99,WeatherLink 5.5,2013-08-11 20:15:00,
2013-08-11 16:20:00,78.7,48.7,29.96,South,180,0.0,4.0,35,0.00,,,-99.99,WeatherLink 5.5,2013-08-11 20:20:00,
2013-08-11 16:25:00,78.3,46.0,29.96,NW,315,1.0,6.0,32,0.00,,,-99.99,WeatherLink 5.5,2013-08-11 20:25:00,
2013-08-11 16:30:00,78.3,46.0,29.96,NW,315,1.0,6.0,32,0.00,,,-99.99,WeatherLink 5.5,2013-08-11 20:30:00,
2013-08-11 16:35:00,78.7,48.0,29.96,SW,225,1.0,6.0,34,0.00,,,-99.99,WeatherLink 5.5,2013-08-11 20:35:00,
2013-08-11 16:40:00,78.9,47.3,29.96,West,270,2.0,7.0,33,0.00,,,-99.99,WeatherLink 5.5,2013-08-11 20:40:00,
2013-08-11 16:45:00,78.9,47.3,29.96,West,270,2.0,7.0,33,0.00,,,-99.99,WeatherLink 5.5,2013-08-11 20:45:00,
2013-08-11 16:50:00,78.7,48.0,29.96,West,270,0.0,6.0,34,0.00,,,-99.99,WeatherLink 5.5,2013-08-11 20:50:00,
2013-08-11 16:55:00,78.3,48.4,29.96,WSW,247,0.0,2.0,35,0.00,,,-99.99,WeatherLink 5.5,2013-08-11 20:55:00,
2013-08-11 17:00:00,78.0,48.1,29.96,WNW,292,0.0,2.0,35,0.00,,,-99.99,WeatherLink 5.5,2013-08-11 21:00:00,
2013-08-11 17:05:00,77.8,47.9,29.96,West,270,1.0,4.0,35,0.00,,,-99.99,WeatherLink 5.5,2013-08-11 21:05:00,
2013-08-11 17:10:00,77.8,47.9,29.96,West,270,0.0,1.0,35,0.00,,,-99.99,WeatherLink 5.5,2013-08-11 21:10:00,
2013-08-11 17:15:00,77.8,47.9,29.96,West,270,0.0,1.0,35,0.00,,,-99.99,WeatherLink 5.5,2013-08-11 21:15:00,
2013-08-11 17:20:00,77.6,50.0,29.96,SW,225,0.0,1.0,38,0.00,,,-99.99,WeatherLink 5.5,2013-08-11 21:20:00,
2013-08-11 17:25:00,77.8,48.7,29.96,West,270,1.0,6.0,36,0.00,,,-99.99,WeatherLink 5.5,2013-08-11 21:25:00,
2013-08-11 17:30:00,77.8,48.7,29.96,West,270,1.0,6.0,36,0.00,,,-99.99,WeatherLink 5.5,2013-08-11 21:30:00,
2013-08-11 17:35:00,78.0,48.1,29.95,WSW,247,0.0,2.0,35,0.00,,,-99.99,WeatherLink 5.5,2013-08-11 21:35:00,
2013-08-11 17:40:00,78.0,48.1,29.95,WSW,247,1.0,4.0,35,0.00,,,-99.99,WeatherLink 5.5,2013-08-11 21:40:00,
2013-08-11 17:45:00,78.0,48.1,29.95,WSW,247,1.0,4.0,35,0.00,,,-99.99,WeatherLink 5.5,2013-08-11 21:45:00,
2013-08-11 17:50:00,77.4,49.1,29.95,SW,225,0.0,1.0,37,0.00,,,-99.99,WeatherLink 5.5,2013-08-11 21:50:00,
2013-08-11 17:55:00,77.3,49.0,29.95,SW,225,0.0,1.0,37,0.00,,,-99.99,WeatherLink 5.5,2013-08-11 21:55:00,
2013-08-11 18:00:00,77.3,49.0,29.95,SW,225,0.0,1.0,37,0.00,,,-99.99,WeatherLink 5.5,2013-08-11 22:00:00,
2013-08-11 18:05:00,77.3,51.1,29.95,SW,225,0.0,1.0,40,0.00,,,-99.99,WeatherLink 5.5,2013-08-11 22:05:00,
2013-08-11 18:10:00,76.9,49.4,29.95,South,180,0.0,2.0,38,0.00,,,-99.99,WeatherLink 5.5,2013-08-11 22:10:00,
2013-08-11 18:15:00,76.9,49.4,29.95,South,180,0.0,2.0,38,0.00,,,-99.99,WeatherLink 5.5,2013-08-11 22:15:00,
2013-08-11 18:20:00,76.5,51.7,29.95,North,-999,0.0,0.0,42,0.00,,,-99.99,WeatherLink 5.5,2013-08-11 22:20:00,
2013-08-11 18:25:00,76.2,52.7,29.95,North,-999,0.0,0.0,44,0.00,,,-99.99,WeatherLink 5.5,2013-08-11 22:25:00,
2013-08-11 18:30:00,76.2,52.7,29.95,North,-999,0.0,0.0,44,0.00,,,-99.99,WeatherLink 5.5,2013-08-11 22:30:00,
2013-08-11 18:35:00,75.5,53.3,29.95,North,-999,0.0,0.0,46,0.00,,,-99.99,WeatherLink 5.5,2013-08-11 22:35:00,
2013-08-11 18:40:00,75.0,54.0,29.95,North,-999,0.0,0.0,48,0.00,,,-99.99,WeatherLink 5.5,2013-08-11 22:40:00,
2013-08-11 18:45:00,75.0,54.0,29.95,North,-999,0.0,0.0,48,0.00,,,-99.99,WeatherLink 5.5,2013-08-11 22:45:00,
2013-08-11 18:50:00,74.1,54.3,29.95,North,-999,0.0,0.0,50,0.00,,,-99.99,WeatherLink 5.5,2013-08-11 22:50:00,
2013-08-11 18:55:00,73.7,54.4,29.95,North,-999,0.0,0.0,51,0.00,,,-99.99,WeatherLink 5.5,2013-08-11 22:55:00,
2013-08-11 19:00:00,73.7,54.4,29.95,North,-999,0.0,0.0,51,0.00,,,-99.99,WeatherLink 5.5,2013-08-11 23:00:00,
2013-08-11 19:05:00,73.4,55.7,29.95,North,-999,0.0,0.0,54,0.00,,,-99.99,WeatherLink 5.5,2013-08-11 23:05:00,
2013-08-11 19:10:00,73.2,56.1,29.95,North,-999,0.0,0.0,55,0.00,,,-99.99,WeatherLink 5.5,2013-08-11 23:10:00,
2013-08-11 19:15:00,73.0,55.9,29.95,North,-999,0.0,0.0,55,0.00,,,-99.99,WeatherLink 5.5,2013-08-11 23:15:00,
2013-08-11 19:16:00,73.2,56.1,29.95,North,-999,0.0,0.0,55,0.00,,,-99.99,WeatherLink 5.5,2013-08-11 23:16:00,
2013-08-11 19:20:00,72.7,56.1,29.95,North,-999,0.0,0.0,56,0.00,,,-99.99,WeatherLink 5.5,2013-08-11 23:20:00,
2013-08-11 19:25:00,72.7,57.1,29.95,North,-999,0.0,0.0,58,0.00,,,-99.99,WeatherLink 5.5,2013-08-11 23:25:00,
2013-08-11 19:30:00,72.4,56.8,29.95,North,-999,0.0,0.0,58,0.00,,,-99.99,WeatherLink 5.5,2013-08-11 23:30:00,
2013-08-11 19:35:00,72.0,56.9,29.95,North,-999,0.0,0.0,59,0.00,,,-99.99,WeatherLink 5.5,2013-08-11 23:35:00,
2013-08-11 19:40:00,71.8,57.2,29.95,North,-999,0.0,0.0,60,0.00,,,-99.99,WeatherLink 5.5,2013-08-11 23:40:00,
2013-08-11 19:45:00,71.5,56.9,29.96,North,-999,0.0,0.0,60,0.00,,,-99.99,WeatherLink 5.5,2013-08-11 23:45:00,
2013-08-11 19:50:00,71.2,57.5,29.96,North,-999,0.0,0.0,62,0.00,,,-99.99,WeatherLink 5.5,2013-08-11 23:50:00,
2013-08-11 19:55:00,70.6,57.4,29.96,North,-999,0.0,0.0,63,0.00,,,-99.99,WeatherLink 5.5,2013-08-11 23:55:00,
2013-08-11 20:00:00,70.1,57.8,29.96,North,-999,0.0,0.0,65,0.00,,,-99.99,WeatherLink 5.5,2013-08-12 00:00:00,
2013-08-11 20:01:00,70.6,57.4,29.96,North,-999,0.0,0.0,63,0.00,,,-99.99,WeatherLink 5.5,2013-08-12 00:01:00,
2013-08-11 20:05:00,69.8,58.3,29.96,North,-999,0.0,0.0,67,0.00,,,-99.99,WeatherLink 5.5,2013-08-12 00:05:00,
2013-08-11 20:10:00,69.5,58.1,29.96,North,-999,0.0,0.0,67,0.00,,,-99.99,WeatherLink 5.5,2013-08-12 00:10:00,
2013-08-11 20:15:00,69.5,58.1,29.96,North,-999,0.0,0.0,67,0.00,,,-99.99,WeatherLink 5.5,2013-08-12 00:15:00,
2013-08-11 20:20:00,68.8,58.2,29.96,North,-999,0.0,0.0,69,0.00,,,-99.99,WeatherLink 5.5,2013-08-12 00:20:00,
2013-08-11 20:25:00,68.5,58.3,29.96,North,-999,0.0,0.0,70,0.00,,,-99.99,WeatherLink 5.5,2013-08-12 00:25:00,
2013-08-11 20:30:00,68.5,58.3,29.96,North,-999,0.0,0.0,70,0.00,,,-99.99,WeatherLink 5.5,2013-08-12 00:30:00,
2013-08-11 20:35:00,67.6,58.2,29.96,North,-999,0.0,0.0,72,0.00,,,-99.99,WeatherLink 5.5,2013-08-12 00:35:00,
2013-08-11 20:40:00,67.5,58.2,29.96,North,-999,0.0,0.0,72,0.00,,,-99.99,WeatherLink 5.5,2013-08-12 00:40:00,
2013-08-11 20:45:00,67.1,57.8,29.96,North,-999,0.0,0.0,72,0.00,,,-99.99,WeatherLink 5.5,2013-08-12 00:45:00,
2013-08-11 20:50:00,66.8,57.9,29.96,North,-999,0.0,0.0,73,0.00,,,-99.99,WeatherLink 5.5,2013-08-12 00:50:00,
2013-08-11 20:55:00,66.5,58.0,29.96,North,-999,0.0,0.0,74,0.00,,,-99.99,WeatherLink 5.5,2013-08-12 00:55:00,
2013-08-11 21:00:00,66.5,58.0,29.96,North,-999,0.0,0.0,74,0.00,,,-99.99,WeatherLink 5.5,2013-08-12 01:00:00,
2013-08-11 21:05:00,65.7,57.2,29.97,North,-999,0.0,0.0,74,0.00,,,-99.99,WeatherLink 5.5,2013-08-12 01:05:00,
2013-08-11 21:10:00,65.5,57.4,29.97,North,-999,0.0,0.0,75,0.00,,,-99.99,WeatherLink 5.5,2013-08-12 01:10:00,
2013-08-11 21:15:00,65.5,57.4,29.97,North,-999,0.0,0.0,75,0.00,,,-99.99,WeatherLink 5.5,2013-08-12 01:15:00,
2013-08-11 21:20:00,65.0,57.2,29.98,North,-999,0.0,0.0,76,0.00,,,-99.99,WeatherLink 5.5,2013-08-12 01:20:00,
2013-08-11 21:25:00,64.9,57.2,29.98,North,-999,0.0,0.0,76,0.00,,,-99.99,WeatherLink 5.5,2013-08-12 01:25:00,
2013-08-11 21:30:00,64.9,57.2,29.98,North,-999,0.0,0.0,76,0.00,,,-99.99,WeatherLink 5.5,2013-08-12 01:30:00,
2013-08-11 21:35:00,64.4,57.0,29.98,North,-999,0.0,0.0,77,0.00,,,-99.99,WeatherLink 5.5,2013-08-12 01:35:00,
2013-08-11 21:40:00,64.0,56.6,29.98,North,-999,0.0,0.0,77,0.00,,,-99.99,WeatherLink 5.5,2013-08-12 01:40:00,
2013-08-11 21:45:00,64.0,56.6,29.98,North,-999,0.0,0.0,77,0.00,,,-99.99,WeatherLink 5.5,2013-08-12 01:45:00,
2013-08-11 21:50:00,63.6,56.6,29.98,North,-999,0.0,0.0,78,0.00,,,-99.99,WeatherLink 5.5,2013-08-12 01:50:00,
2013-08-11 21:55:00,63.4,56.4,29.98,North,-999,0.0,0.0,78,0.00,,,-99.99,WeatherLink 5.5,2013-08-12 01:55:00,
2013-08-11 22:00:00,63.4,56.4,29.98,North,-999,0.0,0.0,78,0.00,,,-99.99,WeatherLink 5.5,2013-08-12 02:00:00,
2013-08-11 22:05:00,63.1,56.5,29.98,North,-999,0.0,0.0,79,0.00,,,-99.99,WeatherLink 5.5,2013-08-12 02:05:00,
2013-08-11 22:10:00,62.9,55.9,29.98,North,-999,0.0,0.0,78,0.00,,,-99.99,WeatherLink 5.5,2013-08-12 02:10:00,
2013-08-11 22:15:00,62.9,55.9,29.98,North,-999,0.0,0.0,78,0.00,,,-99.99,WeatherLink 5.5,2013-08-12 02:15:00,
2013-08-11 22:20:00,62.8,55.8,29.99,North,-999,0.0,0.0,78,0.00,,,-99.99,WeatherLink 5.5,2013-08-12 02:20:00,
2013-08-11 22:25:00,62.6,56.0,29.99,North,-999,0.0,0.0,79,0.00,,,-99.99,WeatherLink 5.5,2013-08-12 02:25:00,
2013-08-11 22:30:00,62.4,55.8,29.99,North,-999,0.0,0.0,79,0.00,,,-99.99,WeatherLink 5.5,2013-08-12 02:30:00,
2013-08-11 22:35:00,62.3,55.7,29.99,North,-999,0.0,0.0,79,0.00,,,-99.99,WeatherLink 5.5,2013-08-12 02:35:00,
2013-08-11 22:40:00,62.1,55.5,29.99,North,-999,0.0,0.0,79,0.00,,,-99.99,WeatherLink 5.5,2013-08-12 02:40:00,
2013-08-11 22:45:00,62.0,55.4,29.99,North,-999,0.0,0.0,79,0.00,,,-99.99,WeatherLink 5.5,2013-08-12 02:45:00,
2013-08-11 22:50:00,61.8,55.6,29.99,North,-999,0.0,0.0,80,0.00,,,-99.99,WeatherLink 5.5,2013-08-12 02:50:00,
2013-08-11 22:55:00,61.5,55.3,29.99,North,-999,0.0,0.0,80,0.00,,,-99.99,WeatherLink 5.5,2013-08-12 02:55:00,
2013-08-11 23:00:00,61.5,55.3,29.99,North,-999,0.0,0.0,80,0.00,,,-99.99,WeatherLink 5.5,2013-08-12 03:00:00,
2013-08-11 23:05:00,61.2,55.3,29.98,North,-999,0.0,0.0,81,0.00,,,-99.99,WeatherLink 5.5,2013-08-12 03:05:00,
2013-08-11 23:10:00,61.0,55.1,29.98,North,-999,0.0,0.0,81,0.00,,,-99.99,WeatherLink 5.5,2013-08-12 03:10:00,
2013-08-11 23:15:00,61.0,55.1,29.98,North,-999,0.0,0.0,81,0.00,,,-99.99,WeatherLink 5.5,2013-08-12 03:15:00,
2013-08-11 23:20:00,60.9,55.0,29.98,North,-999,0.0,0.0,81,0.00,,,-99.99,WeatherLink 5.5,2013-08-12 03:20:00,
2013-08-11 23:25:00,60.7,55.2,29.98,North,-999,0.0,0.0,82,0.00,,,-99.99,WeatherLink 5.5,2013-08-12 03:25:00,
2013-08-11 23:30:00,60.7,55.2,29.98,North,-999,0.0,0.0,82,0.00,,,-99.99,WeatherLink 5.5,2013-08-12 03:30:00,
2013-08-11 23:35:00,60.4,54.9,29.98,North,-999,0.0,0.0,82,0.00,,,-99.99,WeatherLink 5.5,2013-08-12 03:35:00,
2013-08-11 23:40:00,60.2,54.7,29.98,North,-999,0.0,0.0,82,0.00,,,-99.99,WeatherLink 5.5,2013-08-12 03:40:00,
2013-08-11 23:45:00,60.2,54.7,29.98,North,-999,0.0,0.0,82,0.00,,,-99.99,WeatherLink 5.5,2013-08-12 03:45:00,
2013-08-11 23:50:00,60.1,54.9,29.98,North,-999,0.0,0.0,83,0.00,,,-99.99,WeatherLink 5.5,2013-08-12 03:50:00,
2013-08-11 23:55:00,59.9,54.7,29.98,North,-999,0.0,0.0,83,0.00,,,-99.99,WeatherLink 5.5,2013-08-12 03:55:00,